Weather in Novoye Shatkino

Russia / Penza Oblast     52°54′47″N   46°13′29″E
temp.,
°C
wind,
m/s
gust,
m/s
humid.,
%
clouds,
%
prec.,
mm/h
press.,
hPa
HPBL,
m
28 february, sun
sun2800:00−15nnw5119197 0.0 1008534
03:00−17nnw5119292 0.0 1010392
06:00−18nw499322 0.0 1012246
09:00−16nw599127 0.0 1012379
12:00−12nw478665 0.0 1013591
15:00−11nw578783 0.0 1014618
18:00−15nw3594100 0.0 1016105
21:00−18nnw339686 0.0 101850
1 march, mon
mon100:00−19nw339673 0.0 102037
03:00−20nw239737 0.0 102229
06:00−20nw23980 0.0 102323
09:00−16nw24940 0.0 1025175
12:00−11wnw348668 0.0 1024406
15:00−9wnw469080 0.0 1024422
18:00−13w349678 0.0 102374
21:00−15wsw469774 0.0 1022103
2 march, tue
tue200:00−11wsw5119697 0.1 1020265
03:00−7wsw6149498 0.2 1016470
06:00−5wsw71595100 0.6 1011582
09:00−3wsw81496100 1.5 1008726
12:00−1wsw81497100 1.6 1004810
15:000wnw6109899 2.3 1003609
18:00−1nw41094100 0.8 1003544
21:00−3wnw5119397 0.9 1004527
3 march, wed
wed300:00−6wnw499770 0.0 1004200
03:00−4wnw4109682 0.1 1005342
06:00−6wnw5109683 0.1 1005299
09:00−5nw6109385 0.1 1006565
12:00−2nw698998 0.1 1008801
15:00−3nw698999 0.3 1009876
18:00−6nw5119399 0.1 1010506
21:00−6nw5129392 0.3 1013580
4 march, thu
thu400:00−8nnw4119495 0.1 1015384
03:00−11wnw469788 0.1 1016109
06:00−13w479873 0.0 1017125
09:00−9w599682 0.1 1017293
12:00−4wsw71290100 0.1 1015666
15:00−2wsw81489100 0.1 1013814
18:00−3wsw71589100 0.0 1012640
21:00−4wsw8178999 0.0 1011608